Regional Weather Roundup
Issued by NWS Upton, NY

Current Version | Previous Version | Text Only | Print | Product List | Glossary Off
Versions: 1 2 3 4 5 6 7 8 9 10 11 12 13 14 15 16 17 18 19 20 21 22 23 24 25 26 27 28 29 30 31 32 33 34 35 36 37 38 39 40 41 42 43 44 45 46 47 48 49 50

000
ASUS41 KOKX 280705
RWROKX

REGIONAL WEATHER ROUNDUP
NATIONAL WEATHER SERVICE NEW YORK NY
200 AM EST FRI NOV 28 2014

NOTE: "FAIR" INDICATES FEW OR NO CLOUDS BELOW 12,000 FEET WITH NO
SIGNIFICANT WEATHER AND/OR OBSTRUCTIONS TO VISIBILITY.

NYZ071-072-176-178-NJZ106-104-280800-
NEW YORK CITY METRO AREA


CITY           SKY/WX    TMP DP  RH WIND       PRES   REMARKS
CENTRAL PARK   CLEAR     32  23  69 VRB5      30.10R WCI  27
LAGUARDIA APRT CLEAR     33  24  69 NW15      30.07R WCI  23
KENNEDY INTL   PTCLDY    34  23  64 NW12      30.08R WCI  25
NEWARK/LIBERTY PTCLDY    30  23  75 NW12      30.09R WCI  20
BRNX BOT. GARD   N/A    N/A N/A N/A W6        30.09R
TETERBORO      CLEAR     31  22  69 NW8       30.08R WCI  23
$$

NYZ177-179-078>081-280800-
LONG ISLAND NEW YORK

CITY           SKY/WX    TMP DP  RH WIND       PRES   REMARKS
FARMINGDALE    CLEAR     33  27  78 NW6       30.05R WCI  28
ISLIP          CLEAR     33  26  75 NW7       30.02R WCI  27
SHIRLEY        CLOUDY    33  25  72 NW9       30.04S WCI  25
WESTHAMPTON    CLOUDY    35  24  64 NW8       30.03S WCI  29
MONTAUK POINT    N/A     36  28  73 N10       30.00S WCI  28
$$

NYZ052-065-067-280800-
HUDSON VALLEY

CITY           SKY/WX    TMP DP  RH WIND       PRES   REMARKS
WHITE PLAINS   MOCLDY    31  25  78 W8        30.04R WCI  23
NEWBURGH       NOT AVBL
MONTGOMERY     CLEAR     24  22  91 W3        30.05R
POUGHKEEPSIE   FOG       22  20  92 CALM      30.06R VSB 1/4
ALBANY         FLURRIES  27  25  92 CALM      30.05R
$$

NJZ001-105-106-008-010-013-015-019>022-104-280800-
NEW JERSEY

CITY           SKY/WX    TMP DP  RH WIND       PRES   REMARKS
NEWARK/LIBERTY PTCLDY    30  23  75 NW12      30.09R WCI  20
TETERBORO      CLEAR     31  22  69 NW8       30.08R WCI  23
CALDWELL       CLEAR     29  21  72 CALM      30.09R
MORRISTOWN       N/A     30  23  74 CALM      30.09R
SOMERVILLE     PTCLDY    24  21  88 CALM      30.09R
SUSSEX         CLOUDY    22  21  96 CALM      30.07R
ANDOVER          N/A     21  19  92 CALM      30.07R
TRENTON        PTCLDY    30  23  75 W5        30.10R WCI  25
MILLVILLE      CLOUDY    29  28  96 W3        30.13R
ATLANTIC CITY  CLEAR     28  25  88 W5        30.12R WCI  23
WRIGHTSTOWN    PTCLDY    29  24  82 NW5       30.08R WCI  24
TOMS RIVER     CLEAR     28  25  86 CALM      30.11R
BELMAR         CLEAR     30  18  59 NW9       30.08R WCI  22
$$

PAZ047>061-062-071-280800-
EASTERN PENNSYLVANIA

CITY           SKY/WX    TMP DP  RH WIND       PRES   REMARKS
PHILADELPHIA   MOCLDY    32  27  81 W6        30.13R WCI  26
ALLENTOWN      LGT SNOW  28  25  88 CALM      30.10R FOG
SCRANTON       CLOUDY    26  22  84 W3        30.06R
$$

CTZ002-004>006-009-010-012-RIZ004-006-007-MAZ004-011-015-280800-
SOUTHERN NEW ENGLAND
 IN CT

CITY           SKY/WX    TMP DP  RH WIND       PRES   REMARKS
BRADLEY INTL   CLOUDY    32  27  81 CALM      30.01S
HARTFORD       CLOUDY    32  26  78 VRB6      30.03R WCI  26
DANBURY        PTCLDY    27  23  85 W3        30.05R
WTRBRY/OXFORD  CLOUDY    28  19  69 NW5       30.02R WCI  23
BRIDGEPORT     CLOUDY    33  26  75 NW8       30.04S WCI  26
MERIDEN        CLOUDY    32  24  72 NW8       30.03R WCI  25
NEW HAVEN      CLOUDY    36  25  64 NW8       30.03R WCI  30
CHESTER        CLOUDY    32  30  93 N5        30.00R WCI  27
GROTON         FLURRIES  32  29  88 NW9       30.00S WCI  24
WILLIMANTIC    CLOUDY    32  27  81 NW5       30.01R WCI  27

 IN RI

CITY           SKY/WX    TMP DP  RH WIND       PRES   REMARKS
PROVIDENCE     CLOUDY    31  26  82 N9        29.99S WCI  23
BLOCK ISLAND   CLOUDY    34  25  69 N12       29.97S WCI  25
WESTERLY       CLOUDY    32  28  85 NW5       30.00R WCI  27

 IN MA

CITY           SKY/WX    TMP DP  RH WIND       PRES   REMARKS
BOSTON         LGT SNOW  30  28  92 NW8       30.00S VSB 3/4 WCI  22
WORCESTER      CLOUDY    26  24  92 NW8       29.95S WCI  18
WESTFIELD      CLOUDY    29  27  92 N3        30.01S
PROVINCETOWN   CLOUDY    39  34  81 E5        29.95S
NANTUCKET      CLOUDY    39  35  86 N12       29.93R WCI  32
$$

ANZ330-335-338-340-345-350-353-355-280800-
COASTAL MARINE OBSERVATIONS


STATION/POSITION TIME  SKY/WX   TEMP    WIND        PRES    VSBY  WAVE
                                AIR SEA DIR/SP/G                  HT/PER
                 (UTC)          (F)     (DEG/KT/KT) (MB)    (MI)  (FT/S)
NY HARB ENTRANCE 0700            37 54  300/ 17/ 23 1017.9          3/10
4S FIRE IS       0700               52                N/A           3/11
20S FIRE ISLAND  0700            39 54  340/ 16/ 21 1016.6          4/10
23SW MTP         0700                                 N/A           4/10
HUDSON CANYON    0700            42 58  320/ 19/ 25 1015.3          5/ 5
EXECUTION ROCKS  0700            35 47  280/ 14/ 19   N/A
WESTERN LI SOUND 0700            35     310/ 10/ 12   N/A           0
CENTRAL LI SOUND 0600            35 50  340/ 14/ 19   N/A           1/ 3
EASTERN LI SOUND 0600            35 52  330/  8/ 12   N/A
ROBBINS REEF     0700            32     290/ 16/ 18 1017.3
$$


>>>>>>>>>>>>>>>>>>>>>>>>>>>> KEY <<<<<<<<<<<<<<<<<<<<<<<<<<<
>                                                          <
>     SKY/WX - SKY CONDITION/PRESENT WEATHER               <
>     TMP    - TEMPERATURE IN FAHRENHEIT                   <
>     DP     - DEWPOINT IN FAHRENHEIT                      <
>     RH     - RELATIVE HUMIDITY IN PERCENT                <
>     WIND   - DIRECTION AND SPEED IN MPH                  <
>     PRES   - MEAN SEA LEVEL PRESSURE IN INCHES OF HG     <
>     WCI    - WIND CHILL INDEX                            <
>     VSB    - VISIBILITY IN MILES                         <
>     HX     - HEAT INDEX                                  <
>     TC     - TEMPERATURE IN CELSIUS                      <
>     VRB    - VARIABLE WIND DIRECTION                     <
>                                                          <
>>>>>>>>>>>>>>>>>>>>>>>>>>>> KEY <<<<<<<<<<<<<<<<<<<<<<<<<<<





USA.gov is the U.S. government's official web portal to all federal, state and local government web resources and services.